Location: ??? ???
(33.4974°N, 35.4618°E)
Time: 18:13:57
(UTC+00:00)

ARGOS - Pass Details

Date: 29 October 2020
Orbit: 820 x 835 km, 98.4° (Epoch: 30 November)

Event Time Altitude Azimuth Distance (km) Brightness Sun altitude
Exits shadow 16:35:48 36° 36° (NE) 1,294 3.8 -22.8°
Drops below altitude 10° 16:39:33 10° 2° (N) 2,451 5.6 -23.6°
Sets 16:42:00 0° 356° (N) 3,388 6.4 -24.1°
